Location: Conflandey
(47.7287°N, 6.0456°E)
Time: 03:40:56
(UTC+00:00)

Cosmos 1892 - Pass Details

Date: 24 October 2021
Orbit: 501 x 522 km, 82.5° (Epoch: 28 November)

Event Time Altitude Azimuth Distance (km) Brightness Sun altitude
Rises 17:10:13 0° 6° (N) 2,618 6.1 -7.2°
Reaches altitude 10° 17:13:04 10° 29° (NNE) 1,724 5.0 -7.7°
Maximum altitude 17:15:24 16° 68° (ENE) 1,400 4.3 -8.1°
Drops below altitude 10° 17:17:43 10° 106° (ESE) 1,712 4.8 -8.5°
Enters shadow 17:18:33 - 115° (ESE) 1,934 5.1 -8.6°
